Simultaneous Nadir Overpasses (SNOs) Predictions

Prediction of SNOs between LANDSAT-8 and NOAA-19 Satellite Orbit:

Table of predicted SNOs for the next 14.0 days since TLE Epoch: 6/29/2019
Index Date (LANDSAT-8) Time (LANDSAT-8) Lat,Lon (LANDSAT-8) SZA (LANDSAT-8 ) Date (NOAA-19) Time (NOAA-19) Lat,Lon (NOAA-19) SZA (NOAA-19 ) Distance(km) Time Diff (sec)
1 06/30/2019 03:31:25 -78.86, -32.90 123.72 06/30/2019 03:31:12 -78.87, -32.99 123.72 2.07 13
2 06/30/2019 04:20:52 78.82, 134.50 56.23 06/30/2019 04:22:04 78.76, 135.15 56.24 15.94 72
3 07/02/2019 09:05:09 78.87, 63.68 56.43 07/02/2019 09:04:32 78.87, 63.76 56.43 1.92 37
4 07/02/2019 09:54:37 -78.83,-128.87 123.62 07/02/2019 09:55:37 -78.86,-128.93 123.57 3.63 60
5 07/04/2019 14:38:54 -78.88, 160.31 123.39 07/04/2019 14:38:02 -78.88, 160.39 123.39 1.74 52
6 07/04/2019 15:28:20 78.87, -32.08 56.61 07/04/2019 15:28:57 78.86, -32.18 56.61 2.42 37
7 07/06/2019 20:12:38 78.87,-103.14 56.82 07/06/2019 20:11:25 78.98,-103.61 56.87 15.58 73
8 07/06/2019 21:02:05 -78.88, 64.56 123.17 07/06/2019 21:02:27 -78.88, 64.39 123.17 3.73 22
9 07/09/2019 02:35:49 78.88, 161.08 57.07 07/09/2019 02:35:47 78.87, 161.19 57.07 2.39 2
10 07/11/2019 08:09:34 -78.89,-102.27 122.65 07/11/2019 08:09:16 -78.88,-102.14 122.65 2.91 18




NCC Satellite Simultaneous Nadir Overpasses (SNOs) Prediction Service
